SCP
0 0 0 0 0 0 0 0 0 0 0 0 0 0 0 0 0 0 0 0 0 0 0 0 0 0 0 0 0 0 0 0 0 0 0 0 0 0 0 0 0 0 0 -0 -0 -0 -0 0 -0 -0 0 -0 -0 -0
0 0 0 0 0 0 0 0 0 0 0 0 0 0 0 0 0 0 0 0 0 0 0 0 0 0 0 -0 0 0 0 0 0 0 0 0 0 0 0 0 0 -0 -0 -0 -0 -0 -0 -0 -0 0 0 -0 -0 -0
0 0 0 0 0 0 0 0 0 0 0 0 0 0 0 0 0 0 0 0 0 0 0 0 0 0 0 -0 -0 0 0 0 0 0 0 0 0 0 0 0 -0 -0 -0 -0 -0 -0 -0 -0 0 0 -0 -0 -0 0
0 0 0 0 0 0 0 0 0 0 0 0 0 0 0 0 0 0 0 0 0 0 0 0 0 -0 0 0 -0 -0 -0 0 0 0 0 0 0 0 0 -0 -0 -0 -0 -0 0 -0 -0 0 0 0 0 0 0 0
0 0 0 0 0 0 0 0 0 0 0 0 0 0 0 0 0 0 0 0 0 0 0 0 0 0 0 0 0 -0 -0 0 0 0 0 0 0 -0 -0 -0 -0 -0 -0 -0 0 0 0 0 0 0 0 -0 0 -0
0 0 0 0 0 0 0 0 0 0 0 0 0 0 0 0 0 0 0 0 0 0 0 0 0 0 0 0 0 0 0 0 0 0 0 -0 -0 -0 -0 -0 -0 -0 -0 -0 0 0 0 0 0 -0 -0 -0 -0 0
0 0 0 0 0 0 0 0 0 0 0 0 0 0 0 0 0 0 0 0 0 0 0 0 0 0 0 0 -0 0 0 0 0 0 -0 -0 -0 -0 -0 -0 -0 -0 -0 -0 0 0 0 0 0 -0 -0 -0 -0 -0
0 0 0 0 0 0 0 -0 0 0 0 0 0 0 0 0 0 0 0 0 0 0 0 0 0 0 0 -0 -0 -0 0 0 0 -0 -0 -0 -0 -0 0 -0 -0 -0 -0 -0 0 0 0 0 0 0 -0 -0 -0 -0
0 0 0 0 0 0 -0 0 0 0 0 0 0 0 0 0 0 0 0 0 0 0 0 0 0 0 -0 0 0 0 0 -0 0 -0 -0 -0 -0 -0 0 0 -0 -0 -0 -0 0 0 0 0 0 0 -0 -0 -0 -0
0 0 0 0 0 0 0 0 0 0 0 0 0 0 0 0 0 0 0 0 0 0 0 0 0 0 0 0 0 0 0 0 -0 -0 0 -0 -0 0 -0 -0 0 0 0 0 -0 0 0 0 0 -0 -0 -0 -0 -0
0 0 0 0 0 0 0 0 0 -0 0 0 0 0 0 0 0 0 0 0 0 0 0 0 0 0 0 0 0 0 0 -0 -0 -0 -0 -0 -0 0 0 -0 0 0 0 0 0 -0 -0 0 0 0 -0 -0 -0 0
0 0 0 0 0 0 0 -0 -0 0 0 0 0 0 0 0 0 0 0 0 -0 -0 -0 0 0 0 0 0 0 0 0 0 -0 0 -0 -0 -0 0 -0 -0 0 0 0 0 0 -0 0 -0 0 -0 0 0 -0 0
0 0 0 0 0 0 0 -0 -0 -0 0 0 0 0 0 0 0 -0 -0 -0 -0 -0 0 0 0 0 0 0 0 0 0 -0 -0 -0 -0 -0 -0 -0 -0 -0 -0 -0 0 0 -0 0 0 -0 -0 -0 0 -0 -0 -0
0 0 0 0 0 0 -0 -0 -0 0 0 0 0 0 0 -0 -0 -0 -0 -0 0 0 0 0 0 0 0 0 0 0 0 -0 0 0 0 -0 -0 0 -0 -0 -0 -0 -0 0 0 0 0 0 0 -0 -0 -0 0 -0
0 0 0 0 0 0 -0 -0 -0 0 0 0 0 -0 -0 -0 -0 0 0 0 0 0 0 0 0 0 0 0 0 0 0 0 0 0 -0 -0 -0 -0 0 0 -0 -0 -0 -0 -0 -0 0 0 0 0 0 -0 0 0
0 0 0 0 0 -0 -0 0 0 0 0 0 0 0 -0 0 0 0 -0 0 0 0 0 0 0 0 0 0 0 -0 0 0 -0 0 0 0 -0 -0 -0 -0 -0 -0 -0 -0 -0 -0 -0 -0 0 0 0 0 0 0
0 0 0 0 -0 -0 -0 0 0 0 0 0 0 0 -0 0 0 -0 0 0 0 0 0 0 0 0 0 0 0 -0 -0 -0 0 0 0 0 0 -0 -0 -0 0 0 -0 -0 -0 -0 -0 -0 0 -0 -0 -0 0 0
0 0 0 -0 -0 0 0 0 0 0 0 0 0 0 0 0 -0 0 0 0 0 0 0 0 0 0 0 0 0 0 0 0 0 0 0 -0 -0 -0 -0 -0 -0 -0 -0 -0 -0 -0 -0 -0 0 0 -0 -0 0 -0
0 0 -0 -0 0 0 0 0 0 0 0 0 0 -0 0 0 0 0 0 0 0 0 0 0 0 0 0 0 0 0 0 0 -0 0 0 0 -0 0 -0 -0 -0 -0 0 -0 -0 -0 -0 -0 -0 -0 -0 -0 -0 0
0 -0 -0 0 0 0 0 0 0 0 0 0 0 0 0 0 0 0 0 0 0 0 0 0 0 0 -0 -0 -0 -0 0 0 -0 -0 -0 -0 0 -0 0 0 0 -0 0 0 -0 -0 -0 -0 -0 -0 -0 -0 -0 -0
0 0 0 0 0 0 0 0 0 0 0 0 0 0 0 0 0 0 0 0 0 0 0 0 0 0 0 0 0 0 0 0 0 0 0 0 0 0 0 0 0 0 -0 -0 -0 -0 -0 -0 -0 -0 -0 -0 -0 -0
0 0 0 0 0 0 0 0 0 0 0 0 0 0 0 0 0 0 0 0 0 0 0 0 0 0 0 0 0 0 0 0 0 0 0 0 0 0 0 -0 0 0 0 -0 -0 -0 -0 -0 -0 -0 -0 -0 -0 -0
0 0 0 0 0 0 0 0 0 0 0 0 0 0 0 0 0 0 0 0 0 0 0 0 0 0 0 0 0 0 0 0 0 0 0 0 0 0 0 0 0 0 0 0 -0 -0 -0 -0 -0 -0 -0 -0 -0 0
0 0 0 0 0 0 0 0 0 0 0 0 0 0 0 0 0 0 0 0 0 0 0 0 0 0 0 0 0 0 0 0 0 0 0 0 0 0 0 0 0 0 -0 -0 0 0 0 0 -0 -0 -0 -0 -0 0
0 0 0 0 0 0 0 0 0 0 0 0 0 0 0 0 0 0 0 0 0 0 0 0 0 0 0 0 0 0 0 0 0 0 0 0 0 0 0 0 0 0 0 0 0 0 0 0 0 -0 -0 -0 -0 -0
0 0 0 0 0 0 0 0 0 0 0 0 0 0 0 0 0 0 0 0 0 0 -0 -0 -0 0 0 0 0 0 0 0 0 0 0 0 0 0 0 0 0 0 0 0 0 0 0 0 0 0 0 0 0 -0
0 0 0 0 0 0 0 0 0 0 0 0 0 0 0 0 0 0 0 0 0 0 0 0 0 0 0 0 0 0 0 0 0 0 0 0 0 0 0 0 0 0 0 0 0 0 0 0 0 0 0 0 0 0
0 0 0 0 0 0 0 0 0 0 0 0 0 0 0 0 0 0 0 0 0 -0 -0 0 0 0 0 0 0 0 0 0 0 0 0 0 0 0 0 0 0 0 0 0 0 0 0 0 0 0 0 0 0 0
0 0 0 0 0 0 0 0 0 0 0 0 0 0 0 0 0 0 0 0 0 -0 0 0 0 0 0 0 0 0 0 0 0 0 0 0 0 0 0 0 0 0 0 0 0 0 0 0 0 0 0 0 0 0
0 0 0 0 0 0 0 0 0 0 0 0 0 0 0 0 0 0 0 0 0 0 0 0 0 0 0 0 0 0 0 0 0 0 0 0 0 0 0 0 0 0 0 0 0 0 0 0 0 0 0 0 0 0
0 0 0 0 0 0 0 0 0 0 0 0 0 0 0 0 0 0 0 0 0 0 0 0 0 0 0 0 0 0 0 0 0 0 0 0 0 0 0 0 0 0 0 0 0 0 0 0 0 0 0 0 0 0
0 0 0 0 0 0 0 0 0 0 0 0 0 0 0 0 0 0 0 0 0 0 0 0 0 0 0 0 0 0 0 0 0 0 0 0 0 0 0 0 0 0 0 0 0 0 0 0 0 0 0 0 0 0
0 0 0 0 0 0 0 0 0 0 0 0 0 0 0 0 0 0 0 0 0 0 0 0 0 0 0 0 0 0 0 0 0 0 0 0 0 0 0 0 0 0 0 0 0 0 0 0 0 0 0 0 0 0
Wind_Speed_500mb
48 48 54 50 41 39 37 36 36 34 33 30 25 23 21 21 18 17 18 15 12 14 39 43 38 29 16 9 4 14 15 6 8 6 3 4 2 3 4 4 2 4 3 4 3 5 10 19 7 6 13 42 57 60
45 44 41 39 37 39 38 37 42 36 32 29 27 24 22 23 18 18 25 19 21 23 41 57 55 57 60 41 27 9 11 19 2 3 1 2 3 4 4 3 5 1 7 4 10 9 3 12 12 31 38 50 58 65
43 38 32 30 32 34 39 43 45 34 29 27 29 26 23 24 20 23 20 24 21 23 43 22 11 8 25 10 20 16 13 5 2 5 5 2 3 5 1 4 3 4 5 3 8 3 12 52 34 45 60 60 75 80
33 33 33 33 30 29 35 33 29 31 28 28 23 26 25 26 21 26 22 24 22 17 9 14 6 15 24 25 30 38 12 5 7 7 2 3 3 5 2 3 5 1 6 5 10 13 41 16 46 60 68 78 75 85
36 35 33 33 33 32 34 29 30 25 26 23 25 25 24 23 16 23 22 25 28 17 9 25 43 17 36 15 13 18 42 23 5 4 3 4 4 2 2 1 3 1 2 2 7 25 19 43 63 70 76 81 80 94
41 41 39 39 37 35 33 28 28 22 22 22 23 21 22 18 19 16 9 14 13 22 8 7 16 9 17 17 20 26 25 23 3 5 5 7 5 1 3 4 6 6 17 22 16 39 43 58 61 63 75 77 85 88
38 37 37 38 36 35 33 30 30 28 21 20 23 24 19 15 23 16 8 4 16 9 6 9 10 8 18 12 21 28 29 9 9 4 5 5 4 3 2 4 7 20 32 34 16 36 38 40 60 74 70 82 83 90
38 36 34 34 34 32 31 31 27 20 22 24 25 19 14 21 20 24 27 26 20 8 8 5 6 12 3 6 9 17 14 9 9 6 5 4 1 3 4 5 16 27 32 13 35 41 46 56 58 65 73 80 86 88
36 36 37 35 35 30 26 21 19 18 23 26 24 18 17 15 11 10 8 13 17 14 5 5 4 4 11 6 10 6 6 5 5 4 3 2 4 5 3 5 18 29 26 32 44 45 47 56 61 68 73 77 79 91
32 31 33 35 34 28 22 26 23 22 31 29 23 11 7 7 8 12 2 5 8 9 9 7 7 5 11 5 12 8 10 4 5 4 10 3 2 8 3 12 18 25 29 35 41 48 60 61 64 67 67 70 76 83
30 34 33 33 29 20 24 26 29 37 38 33 14 9 8 11 15 6 7 9 8 6 11 12 18 5 11 7 6 16 6 5 3 4 4 4 4 6 2 12 21 24 26 32 32 39 42 48 59 62 64 67 76 81
32 27 29 32 29 20 23 31 41 49 33 21 15 16 14 9 6 6 5 7 8 6 10 8 13 21 12 14 8 5 3 3 4 13 3 3 3 5 6 20 23 24 26 30 33 38 39 43 55 50 56 66 73 79
31 29 26 32 31 23 26 33 45 51 28 27 7 8 8 9 7 8 7 6 5 8 10 10 6 12 13 11 3 3 1 3 19 5 4 1 6 2 10 22 23 24 25 29 37 36 37 44 47 48 57 63 68 78
31 31 29 33 32 26 24 37 54 51 21 8 11 8 7 7 8 8 5 2 7 8 15 22 9 13 6 4 4 3 1 5 3 4 5 4 5 4 17 19 25 23 28 34 38 40 45 47 45 45 48 54 63 74
23 23 26 32 35 24 29 43 65 52 9 8 8 8 12 17 10 9 14 13 24 15 16 17 10 7 1 2 2 3 2 4 4 5 4 10 6 11 14 17 18 26 33 35 37 49 55 57 48 42 48 50 57 66
19 21 26 27 27 27 41 72 62 41 9 8 10 7 15 7 5 10 13 22 17 20 17 14 6 3 2 3 3 6 5 7 7 5 13 13 4 7 9 12 17 23 30 33 33 45 51 62 48 47 47 47 54 63
19 26 24 20 22 35 71 63 23 12 10 8 10 21 26 10 10 18 16 22 13 24 4 3 2 4 3 2 2 6 8 6 13 12 12 12 13 8 10 13 15 18 23 31 34 42 48 58 58 47 56 58 55 59
33 27 26 27 47 81 53 18 14 12 10 18 9 10 19 15 11 10 8 15 12 7 6 3 8 2 6 7 5 6 9 20 18 15 16 19 11 14 11 12 15 20 22 27 34 38 44 52 65 63 46 53 55 58
29 24 22 40 67 44 13 16 12 7 18 10 22 21 13 13 18 21 29 25 27 22 13 6 4 5 6 7 8 25 34 30 28 25 22 14 5 5 15 14 17 20 20 26 33 40 41 42 53 63 47 48 55 57
26 22 55 75 61 12 9 8 14 7 7 11 14 13 14 13 11 17 27 27 23 9 1 2 6 7 7 10 21 39 33 36 36 28 19 13 10 19 13 11 17 20 20 24 28 36 41 45 51 57 61 48 45 51
59 75 71 60 22 10 7 11 12 9 6 10 8 18 7 13 17 13 17 8 8 5 5 7 13 15 22 27 27 25 32 37 34 29 31 31 26 13 11 11 15 20 25 29 32 36 40 44 45 51 52 54 56 47
61 69 42 39 6 7 5 11 4 5 7 6 7 15 7 6 10 15 12 10 9 7 10 29 38 36 35 31 24 18 31 37 32 32 33 30 26 16 12 12 16 20 22 26 28 31 35 36 39 45 48 49 51 53
75 51 15 8 5 9 5 13 8 7 4 5 11 5 5 9 12 16 6 7 5 10 22 40 40 36 35 34 33 35 36 41 38 32 29 27 22 14 10 12 17 19 20 24 26 26 31 32 38 43 47 47 53 56
41 18 9 16 9 9 9 11 9 5 6 5 4 4 6 8 20 5 3 5 16 23 48 48 42 42 37 34 34 33 29 28 31 29 21 22 23 16 8 10 15 21 21 22 24 26 30 36 39 44 48 51 53 56
14 11 12 9 12 10 8 9 8 6 6 7 7 2 4 6 5 4 5 14 35 49 50 48 39 36 41 36 36 42 30 19 23 27 25 19 19 18 9 5 10 14 16 16 21 26 27 28 33 37 41 46 49 50
8 14 17 19 10 9 9 9 11 9 7 7 8 11 3 2 5 6 5 25 49 51 53 51 44 37 41 40 45 36 30 21 16 15 23 16 9 5 4 1 3 7 13 19 22 24 26 29 31 37 39 39 41 42
10 9 14 14 11 9 6 5 10 6 7 8 6 7 5 6 6 5 4 14 38 50 46 42 36 39 44 37 30 29 30 20 8 16 24 17 7 4 4 3 4 7 13 20 24 26 29 33 35 36 38 39 40 42
7 12 8 17 9 11 2 6 7 8 6 10 13 7 9 6 5 2 6 10 21 35 50 41 40 41 41 36 35 39 31 22 23 25 25 20 13 9 9 13 13 14 19 23 27 31 34 36 38 39 38 38 39 40
7 14 18 8 3 8 9 6 7 7 7 18 6 4 5 5 11 9 13 11 28 45 46 43 48 50 46 43 37 29 24 21 22 28 21 20 16 7 1 10 17 21 23 27 30 33 36 38 38 35 34 34 34 35
12 18 8 9 5 5 7 4 7 10 15 18 15 20 21 24 19 21 28 36 38 38 41 52 59 54 48 40 32 22 22 19 16 13 12 17 12 8 7 13 16 18 22 28 32 35 35 32 30 29 30 32 33 34
21 10 6 6 5 6 18 23 23 25 22 17 26 38 26 22 30 23 27 30 37 49 61 59 49 31 23 22 22 28 27 22 25 27 17 9 6 8 11 13 16 21 26 29 31 31 30 29 30 31 32 33 35 37
11 6 8 5 5 16 23 12 11 11 10 14 11 18 25 12 9 10 23 35 46 50 42 35 36 36 30 27 22 19 19 25 21 13 6 6 7 8 11 14 18 21 25 26 28 28 28 29 29 31 32 34 35 37
10 16 12 11 6 5 8 11 8 7 10 7 7 9 10 7 7 7 21 32 40 36 39 37 37 37 30 23 20 21 18 12 6 3 2 2 4 7 9 11 14 17 22 23 25 25 26 27 28 29 30 32 34 35
Wind_Direction_500mb
272 278 281 284 276 276 277 279 290 296 295 290 283 279 267 266 272 250 256 271 294 258 279 273 258 259 255 230 258 325 337 355 14 51 56 288 78 275 9 344 293 172 231 252 324 273 286 18 340 358 279 308 307 304
279 283 286 284 274 273 270 278 286 290 289 282 273 267 260 260 270 244 249 257 301 276 270 283 273 268 267 259 264 289 294 294 281 74 351 346 319 10 148 284 2 234 180 230 190 232 269 325 292 307 306 304 306 307
273 276 277 280 279 277 275 274 280 281 282 281 278 259 255 254 249 238 256 262 285 292 302 282 291 246 251 269 274 217 260 274 23 356 170 216 261 120 66 292 351 214 37 223 15 295 319 318 313 320 316 308 310 310
265 265 269 276 280 294 290 283 273 274 268 273 266 257 249 250 256 236 257 265 282 304 284 285 289 282 229 266 302 225 177 350 342 325 192 148 190 173 260 261 243 229 17 347 267 301 322 273 313 315 315 315 313 318
264 265 266 267 275 286 289 273 272 266 264 264 256 249 243 256 239 229 258 265 278 267 283 290 309 315 233 249 245 214 218 257 299 353 23 247 251 55 344 346 270 231 319 280 273 314 298 293 310 320 314 314 322 320
263 265 264 267 267 271 284 269 264 261 262 258 251 243 243 242 215 229 273 259 268 238 285 292 316 328 189 235 258 227 218 215 174 251 245 284 268 149 231 223 100 27 331 314 276 299 303 305 312 316 315 323 327 319
265 264 264 264 263 265 274 273 252 249 249 262 233 227 237 223 213 204 226 251 328 195 258 286 294 265 289 260 201 205 194 200 209 221 201 239 278 235 245 252 22 342 335 330 322 325 312 318 312 324 324 330 327 324
268 265 263 259 255 265 266 275 247 233 245 235 221 225 223 209 237 245 248 268 287 239 256 275 278 299 84 181 115 184 167 174 213 247 190 216 219 250 254 69 342 344 343 350 332 327 311 315 322 329 335 334 330 333
266 265 261 259 249 257 275 236 223 232 225 215 203 188 185 213 227 242 268 264 247 211 257 241 274 279 354 226 143 113 180 204 191 212 192 160 217 233 79 348 349 349 345 326 333 335 333 336 333 334 333 336 336 336
267 267 259 251 243 245 258 222 207 220 212 195 175 175 201 211 184 169 192 163 196 219 236 245 240 266 335 272 168 200 198 186 192 208 141 202 258 120 66 4 355 350 356 355 340 338 341 337 334 333 336 344 341 340
282 281 253 241 233 239 230 209 209 202 188 175 180 179 162 150 171 191 225 200 190 240 223 235 215 226 260 235 213 195 182 166 172 197 202 209 222 143 358 354 335 337 349 350 348 336 337 337 335 337 346 350 355 352
279 281 254 227 211 220 213 212 215 206 194 182 148 139 163 188 204 247 218 181 213 244 208 211 208 207 248 227 210 186 172 103 206 150 220 226 130 138 355 352 342 344 343 344 357 350 349 339 350 351 358 1 2 4
268 271 257 217 206 218 215 219 216 204 171 142 142 147 171 176 232 217 217 194 225 202 216 191 213 223 218 231 115 100 76 203 122 171 213 15 132 22 358 345 348 346 346 5 358 358 353 346 358 2 360 5 7 10
258 269 234 205 198 212 227 216 207 183 165 143 160 185 203 186 229 204 215 249 269 300 299 318 239 200 201 121 126 142 149 137 261 213 216 192 206 350 347 0 351 28 15 15 11 13 4 356 0 9 10 10 11 13
255 242 210 202 202 222 217 211 193 180 148 163 188 219 216 234 248 222 230 254 255 253 303 323 276 218 176 117 8 74 195 241 213 224 231 155 134 36 28 18 40 32 33 32 25 18 16 12 10 13 18 17 14 17
226 213 215 205 203 203 198 185 175 180 169 193 223 251 250 266 236 222 235 260 241 274 274 223 253 122 341 152 132 215 129 216 243 196 143 157 125 61 24 52 34 31 30 25 22 22 20 17 20 20 21 19 19 20
211 216 208 209 219 198 184 166 157 172 199 220 235 242 254 295 263 268 220 243 253 315 263 217 139 111 141 109 250 173 191 210 158 141 155 174 136 75 58 35 30 30 33 27 22 19 22 23 26 20 22 19 18 21
216 226 219 209 182 169 160 152 155 185 233 230 242 237 224 235 245 274 256 233 301 279 225 216 100 269 210 173 257 215 148 140 143 145 140 140 133 90 43 72 61 45 39 26 23 19 19 20 21 19 19 21 18 16
214 221 215 196 181 153 139 167 165 220 228 249 244 239 238 251 259 259 238 264 311 283 281 177 209 199 222 203 166 160 158 156 150 150 153 152 144 85 117 89 57 46 42 33 29 27 26 25 20 20 20 24 20 17
211 204 185 180 170 119 121 146 180 217 233 227 230 230 219 231 235 231 215 268 288 255 287 207 212 221 189 166 167 161 159 153 148 154 161 165 152 140 112 58 49 45 42 39 33 29 29 29 24 21 24 24 18 16
173 167 166 169 127 109 147 173 182 207 223 228 249 203 219 221 227 227 258 259 220 219 191 217 161 145 150 152 157 164 176 168 164 160 156 149 148 143 104 55 24 27 32 33 28 26 25 25 20 17 21 26 26 20
157 165 155 163 104 140 163 195 199 191 222 257 209 190 218 200 174 189 192 226 228 191 175 161 146 142 138 131 137 157 169 166 158 151 152 148 148 135 99 62 20 29 31 32 23 21 22 17 13 14 18 20 22 25
165 166 131 124 136 179 200 181 196 201 227 212 168 181 226 191 198 181 224 229 192 186 175 164 153 147 140 133 133 138 150 156 148 149 149 147 139 127 101 60 29 19 23 27 13 10 15 11 13 13 17 20 22 23
160 138 151 170 170 188 178 188 204 231 206 220 184 231 186 196 167 176 230 212 180 176 166 162 160 151 150 150 144 151 150 150 151 149 154 161 152 138 108 52 23 13 13 5 1 5 6 8 7 7 8 11 14 16
121 167 159 175 191 176 203 166 177 219 216 213 195 183 218 176 126 214 217 186 177 172 173 173 176 175 165 157 152 155 162 179 171 157 161 182 167 150 137 66 25 24 27 12 12 7 4 3 3 3 3 2 4 6
153 184 184 187 178 197 187 169 191 188 201 169 192 148 218 128 162 218 227 189 187 187 185 182 179 168 165 167 158 163 171 181 170 159 157 165 169 188 166 208 359 31 15 8 5 5 2 359 357 355 356 357 356 356
169 182 197 195 192 187 198 178 158 144 199 188 139 147 160 171 230 265 35 174 196 197 187 182 183 183 167 165 170 169 160 163 172 148 142 149 154 90 42 49 28 21 355 343 347 354 355 351 349 349 349 348 350 352
205 178 165 178 177 172 183 158 186 193 163 157 144 165 172 160 191 54 54 145 182 180 180 177 176 174 172 173 166 162 166 175 156 145 142 134 124 99 48 21 8 346 336 341 342 343 346 346 345 345 345 346 347 349
211 169 155 157 181 161 217 224 194 153 144 150 134 120 114 85 99 124 149 152 169 178 179 179 169 171 165 157 159 167 175 186 179 165 159 150 148 135 350 334 334 332 338 340 340 341 343 343 343 343 344 345 347 347
178 159 121 136 184 191 198 186 133 136 147 148 121 114 112 107 112 134 152 162 166 177 174 169 165 169 155 154 151 168 193 200 215 222 216 182 191 209 278 311 322 331 337 338 339 340 342 343 345 346 350 353 355 357
148 131 118 101 105 36 109 123 123 127 123 107 132 126 120 115 109 126 159 161 166 162 161 155 149 160 176 187 192 189 186 190 208 216 231 234 240 285 302 319 333 335 337 341 344 348 354 355 357 360 2 4 5 5
139 132 123 117 103 111 121 90 67 68 67 98 86 124 126 102 85 118 133 158 166 160 159 170 165 156 148 141 131 135 150 149 157 173 205 268 288 309 326 332 337 341 345 351 356 0 3 5 6 6 8 9 9 9
106 130 116 107 107 93 85 89 70 71 61 67 69 83 86 85 101 125 155 166 175 171 172 174 173 162 157 151 141 138 141 148 168 188 222 307 339 352 359 2 4 3 358 3 5 5 7 9 9 10 9 10 10 11
Wind_Speed_850mb
48 48 54 50 41 39 37 36 36 34 33 30 25 23 21 21 18 17 18 15 12 14 39 43 38 29 16 9 4 14 15 6 8 6 3 4 2 3 4 4 2 4 3 4 3 5 10 19 7 6 13 42 57 60
45 44 41 39 37 39 38 37 42 36 32 29 27 24 22 23 18 18 25 19 21 23 41 57 55 57 60 41 27 9 11 19 2 3 1 2 3 4 4 3 5 1 7 4 10 9 3 12 12 31 38 50 58 65
43 38 32 30 32 34 39 43 45 34 29 27 29 26 23 24 20 23 20 24 21 23 43 22 11 8 25 10 20 16 13 5 2 5 5 2 3 5 1 4 3 4 5 3 8 3 12 52 34 45 60 60 75 80
33 33 33 33 30 29 35 33 29 31 28 28 23 26 25 26 21 26 22 24 22 17 9 14 6 15 24 25 30 38 12 5 7 7 2 3 3 5 2 3 5 1 6 5 10 13 41 16 46 60 68 78 75 85
36 35 33 33 33 32 34 29 30 25 26 23 25 25 24 23 16 23 22 25 28 17 9 25 43 17 36 15 13 18 42 23 5 4 3 4 4 2 2 1 3 1 2 2 7 25 19 43 63 70 76 81 80 94
41 41 39 39 37 35 33 28 28 22 22 22 23 21 22 18 19 16 9 14 13 22 8 7 16 9 17 17 20 26 25 23 3 5 5 7 5 1 3 4 6 6 17 22 16 39 43 58 61 63 75 77 85 88
38 37 37 38 36 35 33 30 30 28 21 20 23 24 19 15 23 16 8 4 16 9 6 9 10 8 18 12 21 28 29 9 9 4 5 5 4 3 2 4 7 20 32 34 16 36 38 40 60 74 70 82 83 90
38 36 34 34 34 32 31 31 27 20 22 24 25 19 14 21 20 24 27 26 20 8 8 5 6 12 3 6 9 17 14 9 9 6 5 4 1 3 4 5 16 27 32 13 35 41 46 56 58 65 73 80 86 88
36 36 37 35 35 30 26 21 19 18 23 26 24 18 17 15 11 10 8 13 17 14 5 5 4 4 11 6 10 6 6 5 5 4 3 2 4 5 3 5 18 29 26 32 44 45 47 56 61 68 73 77 79 91
32 31 33 35 34 28 22 26 23 22 31 29 23 11 7 7 8 12 2 5 8 9 9 7 7 5 11 5 12 8 10 4 5 4 10 3 2 8 3 12 18 25 29 35 41 48 60 61 64 67 67 70 76 83
30 34 33 33 29 20 24 26 29 37 38 33 14 9 8 11 15 6 7 9 8 6 11 12 18 5 11 7 6 16 6 5 3 4 4 4 4 6 2 12 21 24 26 32 32 39 42 48 59 62 64 67 76 81
32 27 29 32 29 20 23 31 41 49 33 21 15 16 14 9 6 6 5 7 8 6 10 8 13 21 12 14 8 5 3 3 4 13 3 3 3 5 6 20 23 24 26 30 33 38 39 43 55 50 56 66 73 79
31 29 26 32 31 23 26 33 45 51 28 27 7 8 8 9 7 8 7 6 5 8 10 10 6 12 13 11 3 3 1 3 19 5 4 1 6 2 10 22 23 24 25 29 37 36 37 44 47 48 57 63 68 78
31 31 29 33 32 26 24 37 54 51 21 8 11 8 7 7 8 8 5 2 7 8 15 22 9 13 6 4 4 3 1 5 3 4 5 4 5 4 17 19 25 23 28 34 38 40 45 47 45 45 48 54 63 74
23 23 26 32 35 24 29 43 65 52 9 8 8 8 12 17 10 9 14 13 24 15 16 17 10 7 1 2 2 3 2 4 4 5 4 10 6 11 14 17 18 26 33 35 37 49 55 57 48 42 48 50 57 66
19 21 26 27 27 27 41 72 62 41 9 8 10 7 15 7 5 10 13 22 17 20 17 14 6 3 2 3 3 6 5 7 7 5 13 13 4 7 9 12 17 23 30 33 33 45 51 62 48 47 47 47 54 63
19 26 24 20 22 35 71 63 23 12 10 8 10 21 26 10 10 18 16 22 13 24 4 3 2 4 3 2 2 6 8 6 13 12 12 12 13 8 10 13 15 18 23 31 34 42 48 58 58 47 56 58 55 59
33 27 26 27 47 81 53 18 14 12 10 18 9 10 19 15 11 10 8 15 12 7 6 3 8 2 6 7 5 6 9 20 18 15 16 19 11 14 11 12 15 20 22 27 34 38 44 52 65 63 46 53 55 58
29 24 22 40 67 44 13 16 12 7 18 10 22 21 13 13 18 21 29 25 27 22 13 6 4 5 6 7 8 25 34 30 28 25 22 14 5 5 15 14 17 20 20 26 33 40 41 42 53 63 47 48 55 57
26 22 55 75 61 12 9 8 14 7 7 11 14 13 14 13 11 17 27 27 23 9 1 2 6 7 7 10 21 39 33 36 36 28 19 13 10 19 13 11 17 20 20 24 28 36 41 45 51 57 61 48 45 51
59 75 71 60 22 10 7 11 12 9 6 10 8 18 7 13 17 13 17 8 8 5 5 7 13 15 22 27 27 25 32 37 34 29 31 31 26 13 11 11 15 20 25 29 32 36 40 44 45 51 52 54 56 47
61 69 42 39 6 7 5 11 4 5 7 6 7 15 7 6 10 15 12 10 9 7 10 29 38 36 35 31 24 18 31 37 32 32 33 30 26 16 12 12 16 20 22 26 28 31 35 36 39 45 48 49 51 53
75 51 15 8 5 9 5 13 8 7 4 5 11 5 5 9 12 16 6 7 5 10 22 40 40 36 35 34 33 35 36 41 38 32 29 27 22 14 10 12 17 19 20 24 26 26 31 32 38 43 47 47 53 56
41 18 9 16 9 9 9 11 9 5 6 5 4 4 6 8 20 5 3 5 16 23 48 48 42 42 37 34 34 33 29 28 31 29 21 22 23 16 8 10 15 21 21 22 24 26 30 36 39 44 48 51 53 56
14 11 12 9 12 10 8 9 8 6 6 7 7 2 4 6 5 4 5 14 35 49 50 48 39 36 41 36 36 42 30 19 23 27 25 19 19 18 9 5 10 14 16 16 21 26 27 28 33 37 41 46 49 50
8 14 17 19 10 9 9 9 11 9 7 7 8 11 3 2 5 6 5 25 49 51 53 51 44 37 41 40 45 36 30 21 16 15 23 16 9 5 4 1 3 7 13 19 22 24 26 29 31 37 39 39 41 42
10 9 14 14 11 9 6 5 10 6 7 8 6 7 5 6 6 5 4 14 38 50 46 42 36 39 44 37 30 29 30 20 8 16 24 17 7 4 4 3 4 7 13 20 24 26 29 33 35 36 38 39 40 42
7 12 8 17 9 11 2 6 7 8 6 10 13 7 9 6 5 2 6 10 21 35 50 41 40 41 41 36 35 39 31 22 23 25 25 20 13 9 9 13 13 14 19 23 27 31 34 36 38 39 38 38 39 40
7 14 18 8 3 8 9 6 7 7 7 18 6 4 5 5 11 9 13 11 28 45 46 43 48 50 46 43 37 29 24 21 22 28 21 20 16 7 1 10 17 21 23 27 30 33 36 38 38 35 34 34 34 35
12 18 8 9 5 5 7 4 7 10 15 18 15 20 21 24 19 21 28 36 38 38 41 52 59 54 48 40 32 22 22 19 16 13 12 17 12 8 7 13 16 18 22 28 32 35 35 32 30 29 30 32 33 34
21 10 6 6 5 6 18 23 23 25 22 17 26 38 26 22 30 23 27 30 37 49 61 59 49 31 23 22 22 28 27 22 25 27 17 9 6 8 11 13 16 21 26 29 31 31 30 29 30 31 32 33 35 37
11 6 8 5 5 16 23 12 11 11 10 14 11 18 25 12 9 10 23 35 46 50 42 35 36 36 30 27 22 19 19 25 21 13 6 6 7 8 11 14 18 21 25 26 28 28 28 29 29 31 32 34 35 37
10 16 12 11 6 5 8 11 8 7 10 7 7 9 10 7 7 7 21 32 40 36 39 37 37 37 30 23 20 21 18 12 6 3 2 2 4 7 9 11 14 17 22 23 25 25 26 27 28 29 30 32 34 35
Wind_Direction_850mb
272 278 281 284 276 276 277 279 290 296 295 290 283 279 267 266 272 250 256 271 294 258 279 273 258 259 255 230 258 325 337 355 14 51 56 288 78 275 9 344 293 172 231 252 324 273 286 18 340 358 279 308 307 304
279 283 286 284 274 273 270 278 286 290 289 282 273 267 260 260 270 244 249 257 301 276 270 283 273 268 267 259 264 289 294 294 281 74 351 346 319 10 148 284 2 234 180 230 190 232 269 325 292 307 306 304 306 307
273 276 277 280 279 277 275 274 280 281 282 281 278 259 255 254 249 238 256 262 285 292 302 282 291 246 251 269 274 217 260 274 23 356 170 216 261 120 66 292 351 214 37 223 15 295 319 318 313 320 316 308 310 310
265 265 269 276 280 294 290 283 273 274 268 273 266 257 249 250 256 236 257 265 282 304 284 285 289 282 229 266 302 225 177 350 342 325 192 148 190 173 260 261 243 229 17 347 267 301 322 273 313 315 315 315 313 318
264 265 266 267 275 286 289 273 272 266 264 264 256 249 243 256 239 229 258 265 278 267 283 290 309 315 233 249 245 214 218 257 299 353 23 247 251 55 344 346 270 231 319 280 273 314 298 293 310 320 314 314 322 320
263 265 264 267 267 271 284 269 264 261 262 258 251 243 243 242 215 229 273 259 268 238 285 292 316 328 189 235 258 227 218 215 174 251 245 284 268 149 231 223 100 27 331 314 276 299 303 305 312 316 315 323 327 319
265 264 264 264 263 265 274 273 252 249 249 262 233 227 237 223 213 204 226 251 328 195 258 286 294 265 289 260 201 205 194 200 209 221 201 239 278 235 245 252 22 342 335 330 322 325 312 318 312 324 324 330 327 324
268 265 263 259 255 265 266 275 247 233 245 235 221 225 223 209 237 245 248 268 287 239 256 275 278 299 84 181 115 184 167 174 213 247 190 216 219 250 254 69 342 344 343 350 332 327 311 315 322 329 335 334 330 333
266 265 261 259 249 257 275 236 223 232 225 215 203 188 185 213 227 242 268 264 247 211 257 241 274 279 354 226 143 113 180 204 191 212 192 160 217 233 79 348 349 349 345 326 333 335 333 336 333 334 333 336 336 336
267 267 259 251 243 245 258 222 207 220 212 195 175 175 201 211 184 169 192 163 196 219 236 245 240 266 335 272 168 200 198 186 192 208 141 202 258 120 66 4 355 350 356 355 340 338 341 337 334 333 336 344 341 340
282 281 253 241 233 239 230 209 209 202 188 175 180 179 162 150 171 191 225 200 190 240 223 235 215 226 260 235 213 195 182 166 172 197 202 209 222 143 358 354 335 337 349 350 348 336 337 337 335 337 346 350 355 352
279 281 254 227 211 220 213 212 215 206 194 182 148 139 163 188 204 247 218 181 213 244 208 211 208 207 248 227 210 186 172 103 206 150 220 226 130 138 355 352 342 344 343 344 357 350 349 339 350 351 358 1 2 4
268 271 257 217 206 218 215 219 216 204 171 142 142 147 171 176 232 217 217 194 225 202 216 191 213 223 218 231 115 100 76 203 122 171 213 15 132 22 358 345 348 346 346 5 358 358 353 346 358 2 360 5 7 10
258 269 234 205 198 212 227 216 207 183 165 143 160 185 203 186 229 204 215 249 269 300 299 318 239 200 201 121 126 142 149 137 261 213 216 192 206 350 347 0 351 28 15 15 11 13 4 356 0 9 10 10 11 13
255 242 210 202 202 222 217 211 193 180 148 163 188 219 216 234 248 222 230 254 255 253 303 323 276 218 176 117 8 74 195 241 213 224 231 155 134 36 28 18 40 32 33 32 25 18 16 12 10 13 18 17 14 17
226 213 215 205 203 203 198 185 175 180 169 193 223 251 250 266 236 222 235 260 241 274 274 223 253 122 341 152 132 215 129 216 243 196 143 157 125 61 24 52 34 31 30 25 22 22 20 17 20 20 21 19 19 20
211 216 208 209 219 198 184 166 157 172 199 220 235 242 254 295 263 268 220 243 253 315 263 217 139 111 141 109 250 173 191 210 158 141 155 174 136 75 58 35 30 30 33 27 22 19 22 23 26 20 22 19 18 21
216 226 219 209 182 169 160 152 155 185 233 230 242 237 224 235 245 274 256 233 301 279 225 216 100 269 210 173 257 215 148 140 143 145 140 140 133 90 43 72 61 45 39 26 23 19 19 20 21 19 19 21 18 16
214 221 215 196 181 153 139 167 165 220 228 249 244 239 238 251 259 259 238 264 311 283 281 177 209 199 222 203 166 160 158 156 150 150 153 152 144 85 117 89 57 46 42 33 29 27 26 25 20 20 20 24 20 17
211 204 185 180 170 119 121 146 180 217 233 227 230 230 219 231 235 231 215 268 288 255 287 207 212 221 189 166 167 161 159 153 148 154 161 165 152 140 112 58 49 45 42 39 33 29 29 29 24 21 24 24 18 16
173 167 166 169 127 109 147 173 182 207 223 228 249 203 219 221 227 227 258 259 220 219 191 217 161 145 150 152 157 164 176 168 164 160 156 149 148 143 104 55 24 27 32 33 28 26 25 25 20 17 21 26 26 20
157 165 155 163 104 140 163 195 199 191 222 257 209 190 218 200 174 189 192 226 228 191 175 161 146 142 138 131 137 157 169 166 158 151 152 148 148 135 99 62 20 29 31 32 23 21 22 17 13 14 18 20 22 25
165 166 131 124 136 179 200 181 196 201 227 212 168 181 226 191 198 181 224 229 192 186 175 164 153 147 140 133 133 138 150 156 148 149 149 147 139 127 101 60 29 19 23 27 13 10 15 11 13 13 17 20 22 23
160 138 151 170 170 188 178 188 204 231 206 220 184 231 186 196 167 176 230 212 180 176 166 162 160 151 150 150 144 151 150 150 151 149 154 161 152 138 108 52 23 13 13 5 1 5 6 8 7 7 8 11 14 16
121 167 159 175 191 176 203 166 177 219 216 213 195 183 218 176 126 214 217 186 177 172 173 173 176 175 165 157 152 155 162 179 171 157 161 182 167 150 137 66 25 24 27 12 12 7 4 3 3 3 3 2 4 6
153 184 184 187 178 197 187 169 191 188 201 169 192 148 218 128 162 218 227 189 187 187 185 182 179 168 165 167 158 163 171 181 170 159 157 165 169 188 166 208 359 31 15 8 5 5 2 359 357 355 356 357 356 356
169 182 197 195 192 187 198 178 158 144 199 188 139 147 160 171 230 265 35 174 196 197 187 182 183 183 167 165 170 169 160 163 172 148 142 149 154 90 42 49 28 21 355 343 347 354 355 351 349 349 349 348 350 352
205 178 165 178 177 172 183 158 186 193 163 157 144 165 172 160 191 54 54 145 182 180 180 177 176 174 172 173 166 162 166 175 156 145 142 134 124 99 48 21 8 346 336 341 342 343 346 346 345 345 345 346 347 349
211 169 155 157 181 161 217 224 194 153 144 150 134 120 114 85 99 124 149 152 169 178 179 179 169 171 165 157 159 167 175 186 179 165 159 150 148 135 350 334 334 332 338 340 340 341 343 343 343 343 344 345 347 347
178 159 121 136 184 191 198 186 133 136 147 148 121 114 112 107 112 134 152 162 166 177 174 169 165 169 155 154 151 168 193 200 215 222 216 182 191 209 278 311 322 331 337 338 339 340 342 343 345 346 350 353 355 357
148 131 118 101 105 36 109 123 123 127 123 107 132 126 120 115 109 126 159 161 166 162 161 155 149 160 176 187 192 189 186 190 208 216 231 234 240 285 302 319 333 335 337 341 344 348 354 355 357 360 2 4 5 5
139 132 123 117 103 111 121 90 67 68 67 98 86 124 126 102 85 118 133 158 166 160 159 170 165 156 148 141 131 135 150 149 157 173 205 268 288 309 326 332 337 341 345 351 356 0 3 5 6 6 8 9 9 9
106 130 116 107 107 93 85 89 70 71 61 67 69 83 86 85 101 125 155 166 175 171 172 174 173 162 157 151 141 138 141 148 168 188 222 307 339 352 359 2 4 3 358 3 5 5 7 9 9 10 9 10 10 11